Find Starlink 37550

NORAD ID: 100277 Int'l Des: 2026-183 Owner: SPXS Country: US Constellation: starlink operational

当前视图

正在加载3D地球...

About Starlink 37550

Starlink 37550 (NORAD 100277) is a starlink constellation satellite launched Aug 11, 2026 by SPXS of US. with a mass of 575.00 kg.

即将过境

Passes for default location (London). Set your location on the main map for personalized predictions.

高度历史

Loading altitude history...

两行轨道根数

1 A0277U 26183F 26249.39800869 .00152418 00000-0 97918-3 0 9990
2 A0277 53.1581 327.2764 0001184 120.0753 240.0385 15.75273227 4089
Epoch: Sep 6, 2026 • Age: 12 hours

当前状态

高度 362.6 km
远地点 / 近地点 N/A
速度 7.69 km/s
星下点 -53.29°S, 73.64°W
发射日期 Aug 11, 2026
运行时间 26 days
类型 internet

技术详情

分类 Payload
质量 575.00 kg
干质量 530.00 kg
总质量 575.00 kg
长度 0.30 m
直径 4.10 m
跨度 29.00 m
形状 Box + pan
制造商 SPXS
平台类型 Starlink V2MO
阶段状态 In Orbit
所有者/国家 SPXS/US

Most Searched